AISat 1 (44104 NORAD) Tracking and Keplerian Element Data

This shows tracking and keplerian element data for the satellite.

Feedback or suggestion? Click here.




ElementValue
Catalog44104
NameAISat 1
Epoch Orbit2086
Epoch Day227.5964317
Epoch Year2019
RAAN289.684
Inclination97.5054
Eccentricity0.0057938
Argument of Perigee220.3195
Mean Anonmoly139.3743
Mean Motion15.30525152
Decay Rate4.3E-06
L11 44104U 19018AC 19227.59643170 .00000430 00000-0 16652-4 0 9999
L22 44104 97.5054 289.6840 0057938 220.3195 139.3743 15.30525152 20861

Live tracking and technical data element details for AISat 1 (NORAD 44104). AISat 1 can be tracked NOW for your location showing map with azimuth and elevation plus other details from your city location.

Track the satellite on the map from your city or location and see movement details for azimuth, elevation, latitude, longitude, range, height, and movement on the map or in text.







IsCatalogInMostPopularTable: catalog: 44104, numindb: 76
Update: records affected: 1



GetName: 44104 AISat 1

Hit Count: updated at: Thu, 22 Aug 2019 15:19:21 GMT